Estación de Campanacura
Ultimos registro cada 15 minutos 25
| N° | Estación | Fecha / Hora | Temperatura | Humedad | Lluvia | Velocidad | Dirección | Radiación | Presion |
| 25 | Campanacura | 05-05-2026 06:00 | 10,7 | 19,7 | 0 | 0 | 234 | 0,6 | 1000,1 |
| 24 | Campanacura | 05-05-2026 05:45 | 10,7 | 19,6 | 0 | 0 | 312 | 0,6 | 1001 |
| 23 | Campanacura | 05-05-2026 05:30 | 10,9 | 19,4 | 0 | 0 | 345 | 0,6 | 999,8 |
| 22 | Campanacura | 05-05-2026 05:15 | 11,1 | 19,3 | 0 | 0 | 205 | 0,6 | 1000,3 |
| 21 | Campanacura | 05-05-2026 05:00 | 11,5 | 18,8 | 0 | 0 | 77 | 0,6 | 999,5 |
| 20 | Campanacura | 05-05-2026 04:45 | 10,7 | 19,5 | 0 | 0 | 314 | 0,6 | 1000 |
| 19 | Campanacura | 05-05-2026 04:30 | 10,7 | 19,3 | 0 | 0 | 15 | 0,6 | 1000,9 |
| 18 | Campanacura | 05-05-2026 04:15 | 10,5 | 19,5 | 0 | 0 | 321 | 0,6 | 999,9 |
| 17 | Campanacura | 05-05-2026 04:00 | 10,7 | 19 | 0 | 0 | 321 | 0,6 | 1000,7 |
| 16 | Campanacura | 05-05-2026 03:45 | 10,7 | 18,9 | 0 | 0 | 321 | 0,6 | 1000,7 |
| 15 | Campanacura | 05-05-2026 03:30 | 10,6 | 19,1 | 0 | 0 | 313 | 0,6 | 1000,4 |
| 14 | Campanacura | 05-05-2026 03:15 | 10,4 | 19,1 | 0 | 0 | 309 | 0,6 | 1000,5 |
| 13 | Campanacura | 05-05-2026 03:00 | 10,3 | 19,2 | 0 | 0 | 309 | 0,6 | 1000,7 |
| 12 | Campanacura | 05-05-2026 02:45 | 10,2 | 19 | 0 | 0 | 309 | 0,6 | 1000,6 |
| 11 | Campanacura | 05-05-2026 02:30 | 10,1 | 19,1 | 0 | 0 | 309 | 0,6 | 1001 |
| 10 | Campanacura | 05-05-2026 02:15 | 10,1 | 18,9 | 0 | 0 | 309 | 0,6 | 1000,6 |
| 9 | Campanacura | 05-05-2026 02:00 | 10,3 | 18,5 | 0 | 0 | 309 | 0,6 | 1000,7 |
| 8 | Campanacura | 05-05-2026 01:45 | 10,6 | 18,6 | 0 | 0 | 309 | 0,6 | 1000,5 |
| 7 | Campanacura | 05-05-2026 01:30 | 10,3 | 18,4 | 0 | 0 | 307 | 0,6 | 1000,9 |
| 6 | Campanacura | 05-05-2026 01:15 | 10,6 | 18,2 | 0 | 0 | 307 | 0,6 | 1001 |
| 5 | Campanacura | 05-05-2026 01:00 | 10,8 | 18 | 0 | 0 | 307 | 0,6 | 1001 |
| 4 | Campanacura | 05-05-2026 00:45 | 10,7 | 18 | 0 | 0 | 307 | 0,6 | 1001,2 |
| 3 | Campanacura | 05-05-2026 00:30 | 10,7 | 18 | 0 | 0 | 307 | 0,6 | 1001,4 |
| 2 | Campanacura | 05-05-2026 00:15 | 10,5 | 18,2 | 0 | 0 | 307 | 0,6 | 1001,5 |
| 1 | Campanacura | 05-05-2026 00:00 | 10,5 | 18 | 0 | 0 | 307 | 0,6 | 1001,5 |